This is the latest recevied weather packets stored in our database for station/object HB9TJM-8. If no packets are shown the sender has not sent any weather packets the latest 10 day(s).
| Time | Temp. | Humidity | Pressure | Rain* | Wind** | Luminosity | Snow |
|---|---|---|---|---|---|---|---|
| 1777442543 | 9.44° C | 89% | 1017.4 hPa | 0 mm | - | 54 W/m² | - |
| 1777442543 | 9.44° C | 89% | 1017.4 hPa | 0 mm | - | 54 W/m² | - |
| 1777442235 | 9.44° C | 90% | 1016.9 hPa | 0 mm | - | 43 W/m² | - |
| 1777441928 | 9.44° C | 90% | 1017 hPa | 0 mm | - | 38 W/m² | - |
| 1777441928 | 9.44° C | 90% | 1017 hPa | 0 mm | - | 38 W/m² | - |
| 1777441621 | 9.44° C | 90% | 1017.1 hPa | 0 mm | - | 34 W/m² | - |
| 1777441313 | 9.44° C | 91% | 1017 hPa | 0 mm | - | 32 W/m² | - |
| 1777441005 | 9.44° C | 91% | 1016.7 hPa | 0 mm | - | 29 W/m² | - |
| 1777440697 | 9.44° C | 91% | 1017.7 hPa | 0 mm | - | 29 W/m² | - |
| 1777440389 | 9.44° C | 92% | 1017.1 hPa | 0 mm | - | 27 W/m² | - |
| 1777440081 | 9.44° C | 92% | 1016.7 hPa | 0 mm | - | 24 W/m² | - |
| 1777440081 | 9.44° C | 92% | 1016.7 hPa | 0 mm | - | 24 W/m² | - |
| 1777439773 | 9.44° C | 93% | 1017.1 hPa | 0 mm | - | 18 W/m² | - |
| 1777439466 | 9.44° C | 93% | 1016.8 hPa | 0 mm | - | 14 W/m² | - |
| 1777439466 | 9.44° C | 93% | 1016.8 hPa | 0 mm | - | 14 W/m² | - |
| 1777439158 | 9.44° C | 94% | 1016.8 hPa | 0 mm | - | 15 W/m² | - |
| 1777438851 | 9.44° C | 94% | 1017 hPa | 0 mm | - | 13 W/m² | - |
| 1777438851 | 9.44° C | 94% | 1017 hPa | 0 mm | - | 13 W/m² | - |
| 1777438543 | 9.44° C | 94% | 1016.9 hPa | 0 mm | - | 10 W/m² | - |
| 1777438543 | 9.44° C | 94% | 1016.9 hPa | 0 mm | - | 10 W/m² | - |
| 1777438236 | 9.44° C | 93% | 1017 hPa | 0 mm | - | 8 W/m² | - |
| 1777438236 | 9.44° C | 93% | 1017 hPa | 0 mm | - | 8 W/m² | - |
| 1777437928 | 9.44° C | 93% | 1017 hPa | 0 mm | - | 5 W/m² | - |
| 1777437621 | 9.44° C | 93% | 1016.7 hPa | 0 mm | - | 4 W/m² | - |
| 1777437620 | 9.44° C | 93% | 1016.7 hPa | 0 mm | - | 4 W/m² | - |
* Rain latest hour (hover to see other rain measurements)
** Current wind speed in m/s (hover to see current wind gust speed)